Imperial, NE

9:50 PM MDT on May 24, 2017 (GMT -0600)
Imperial Municipal

Weather History for KIML - October, 2012

Change the Weather History Date:

Tuesday, October 16, 2012

  Actual Average Record
Temperature  
Mean Temperature 63 °F 51 °F  
Max Temperature 79 °F 65 °F 91 °F (1991)
Min Temperature 47 °F 36 °F 14 °F (1969)
Degree Days  
Heating Degree Days 2 14  
Month to date heating degree days 238 181  
Cooling Degree Days 0 0  
Month to date cooling degree days 4 3  
Year to date cooling degree days 1382 960  
Growing Degree Days 13 (Base 50)    
Moisture  
Dew Point 35 °F    
Average Humidity 40    
Maximum Humidity 61    
Minimum Humidity 19    
Precipitation  
Precipitation 0.03 in 0.06 in 1.17 in (1915)
Sea Level Pressure  
Sea Level Pressure 29.61 in    
Wind  
Wind Speed 11 mph (West)    
Max Wind Speed 30 mph    
Max Gust Speed 41 mph    
Visibility 10 miles    
Events Rain    
T = Trace of Precipitation, MM = Missing Value Source: NWS Daily Summary

Daily Weather History Graph

Daily Weather History Graph

Search for Another Location

Airport or City:

Trip Planner

Search our weather history database for the weather conditions in past years. The results will help you decide how hot, cold, wet, or windy it might be!

Date:

Astronomy

Oct. 16, 2012 Rise Set
Actual Time 6:59 AM MDT 6:04 PM MDT
Civil Twilight 6:31 AM MDT 6:31 PM MDT
Nautical Twilight 5:59 AM MDT 7:03 PM MDT
Astronomical Twilight 5:28 AM MDT 7:34 PM MDT
Moon 8:24 AM MDT (10/16) 6:49 PM MDT (10/16)
Length of Visible Light 12h 00m
Length of Day
11h 04m
New Moon, 2% of the Moon is Illuminated
Oct 16
New Moon
Oct 21
First Quarter
Oct 29
Full
Nov 6
Last Quarter
Nov 13
New

Hourly Weather History & Observations

Time (MDT) Temp. Dew Point Humidity Pressure Visibility Wind Dir Wind Speed Gust Speed Precip Events Conditions
12:53 AM 50.0 °F 32.0 °F 50% 29.72 in 10.0 mi West 4.6 mph - N/A   Clear
1:53 AM 52.0 °F 33.1 °F 49% 29.71 in 10.0 mi West 10.4 mph - N/A   Clear
2:53 AM 55.9 °F 33.1 °F 42% 29.71 in 10.0 mi WNW 13.8 mph - N/A   Clear
3:53 AM 53.1 °F 33.1 °F 47% 29.72 in 10.0 mi WNW 15.0 mph - N/A   Clear
4:53 AM 53.1 °F 34.0 °F 48% 29.74 in 10.0 mi NW 13.8 mph - N/A   Clear
5:53 AM 50.0 °F 35.6 °F 58% 29.80 in 10.0 mi NNW 12.7 mph - N/A   Clear
6:53 AM 48.9 °F 35.1 °F 59% 29.77 in 10.0 mi NNW 15.0 mph - N/A   Clear
7:53 AM 50.0 °F 36.0 °F 59% 29.78 in 10.0 mi WNW 8.1 mph - N/A   Clear
8:53 AM 57.9 °F 37.9 °F 47% 29.77 in 10.0 mi West 8.1 mph - N/A   Clear
9:53 AM 63.0 °F 39.0 °F 41% 29.73 in 10.0 mi West 5.8 mph - N/A   Clear
10:53 AM 69.1 °F 37.9 °F 32% 29.70 in 10.0 mi Variable 5.8 mph - N/A   Clear
11:53 AM 73.0 °F 36.0 °F 26% 29.66 in 10.0 mi SW 8.1 mph - N/A   Clear
12:53 PM 75.0 °F 34.0 °F 22% 29.59 in 10.0 mi SW 8.1 mph 16.1 mph N/A   Clear
1:53 PM 78.1 °F 34.0 °F 20% 29.55 in 10.0 mi SW 8.1 mph 19.6 mph N/A   Clear
2:53 PM 75.9 °F 33.1 °F 21% 29.50 in 10.0 mi SSW 10.4 mph 18.4 mph N/A   Clear
3:53 PM 75.9 °F 30.9 °F 19% 29.49 in 10.0 mi WSW 12.7 mph - N/A   Mostly Cloudy
4:53 PM 77.0 °F 32.0 °F 19% 29.47 in 10.0 mi SW 8.1 mph - N/A   Scattered Clouds
5:53 PM 71.1 °F 34.0 °F 26% 29.45 in 10.0 mi South 6.9 mph - N/A   Clear
6:53 PM 64.9 °F 35.1 °F 33% 29.45 in 10.0 mi South 9.2 mph - N/A   Clear
7:53 PM 64.0 °F 36.0 °F 35% 29.49 in 10.0 mi WSW 6.9 mph - N/A   Mostly Cloudy
8:53 PM 64.9 °F 36.0 °F 34% 29.45 in 10.0 mi WSW 9.2 mph - 0.00 in Rain Light Rain
9:53 PM 71.1 °F 35.1 °F 27% 29.44 in 10.0 mi NNW 10.4 mph - 0.00 in   Mostly Cloudy
10:53 PM 61.0 °F 46.0 °F 58% 29.52 in 10.0 mi NW 16.1 mph 29.9 mph 0.00 in Rain Light Rain
11:53 PM 61.0 °F 43.0 °F 52% 29.54 in 10.0 mi WNW 19.6 mph 32.2 mph 0.00 in Rain Light Rain